Terminal Aerodrome Forecast
Issued by NWS Louisville, KY

Home | Current Version | Previous Version | Text Only | Print | Product List | Glossary On
Versions: 1 2 3 4 5 6 7 8 9 10 11 12 13 14 15 16 17 18 19 20 21 22 23 24 25
000
FTUS43 KLMK 272338
TAFBWG
TAF
KBWG 272338Z 2800/2824 20004KT P6SM SCT040 BKN250
     FM280400 21004KT 6SM -TSRA BR BKN080CB OVC250
      TEMPO 2805/2809 3SM -TSRA BR BKN035CB
     FM281000 21006KT 6SM BR VCSH BKN035
     FM281500 21006KT P6SM VCTS BKN035CB=

USA.gov is the U.S. government's official web portal to all federal, state and local government web resources and services.